Time,TemperatureF,DewpointF,PressureIn,WindDirection,WindDirectionDegrees,WindSpeedMPH,WindSpeedGustMPH,Humidity,HourlyPrecipIn,Conditions,Clouds,dailyrainin,SolarRadiationWatts/m^2,SoftwareType,DateUTC
2013-04-24 00:02:00,35.0,16.0,-100.00,South,170,5.0,8.0,45,0.00,,,0.00,0.000000,,2013-04-24 07:02:00,
2013-04-24 00:11:00,35.0,16.0,-100.00,South,170,5.0,8.0,45,0.00,,,0.00,0.000000,,2013-04-24 07:11:00,
2013-04-24 00:21:00,35.0,16.0,-100.00,South,170,5.0,8.0,45,0.00,,,0.00,0.000000,,2013-04-24 07:21:00,
2013-04-24 00:52:00,30.0,8.0,-100.00,East,84,4.0,7.0,39,0.00,,,0.00,0.000000,,2013-04-24 07:52:00,
2013-04-24 01:01:00,30.0,8.0,-100.00,East,84,4.0,7.0,39,0.00,,,0.00,0.000000,,2013-04-24 08:01:00,
2013-04-24 01:11:00,30.0,8.0,-100.00,East,84,4.0,7.0,39,0.00,,,0.00,0.000000,,2013-04-24 08:11:00,
2013-04-24 01:21:00,30.0,8.0,-100.00,East,84,4.0,7.0,39,0.00,,,0.00,0.000000,,2013-04-24 08:21:00,
2013-04-24 01:52:00,33.0,17.0,-100.00,South,182,5.0,9.0,52,0.00,,,0.00,0.000000,,2013-04-24 08:52:00,
2013-04-24 02:01:00,33.0,17.0,-100.00,South,182,5.0,9.0,52,0.00,,,0.00,0.000000,,2013-04-24 09:01:00,
2013-04-24 02:11:00,33.0,17.0,-100.00,South,182,5.0,9.0,52,0.00,,,0.00,0.000000,,2013-04-24 09:11:00,
2013-04-24 02:21:00,33.0,17.0,-100.00,South,182,5.0,9.0,52,0.00,,,0.00,0.000000,,2013-04-24 09:21:00,
2013-04-24 02:53:00,26.0,14.0,-100.00,South,182,4.0,7.0,60,0.00,,,0.00,0.000000,,2013-04-24 09:53:00,
2013-04-24 03:02:00,26.0,14.0,-100.00,South,182,4.0,7.0,60,0.00,,,0.00,0.000000,,2013-04-24 10:02:00,
2013-04-24 03:12:00,26.0,14.0,-100.00,South,182,4.0,7.0,60,0.00,,,0.00,0.000000,,2013-04-24 10:12:00,
2013-04-24 03:22:00,26.0,14.0,-100.00,South,182,4.0,7.0,60,0.00,,,0.00,0.000000,,2013-04-24 10:22:00,
2013-04-24 03:53:00,24.0,9.0,-100.00,South,174,2.0,7.0,51,0.00,,,0.00,0.000000,,2013-04-24 10:53:00,
2013-04-24 04:02:00,24.0,9.0,-100.00,South,174,2.0,7.0,51,0.00,,,0.00,0.000000,,2013-04-24 11:02:00,
2013-04-24 04:11:00,24.0,9.0,-100.00,South,174,2.0,7.0,51,0.00,,,0.00,0.000000,,2013-04-24 11:11:00,
2013-04-24 04:21:00,24.0,9.0,-100.00,South,174,2.0,7.0,51,0.00,,,0.00,0.000000,,2013-04-24 11:21:00,
2013-04-24 04:52:00,28.0,12.0,-100.00,South,178,4.0,12.0,50,0.00,,,0.00,0.000000,,2013-04-24 11:52:00,
2013-04-24 05:02:00,28.0,12.0,-100.00,South,178,4.0,12.0,50,0.00,,,0.00,0.000000,,2013-04-24 12:02:00,
2013-04-24 05:11:00,28.0,12.0,-100.00,South,178,4.0,12.0,50,0.00,,,0.00,0.000000,,2013-04-24 12:11:00,
2013-04-24 05:22:00,28.0,12.0,-100.00,South,178,4.0,12.0,50,0.00,,,0.00,0.000000,,2013-04-24 12:22:00,
2013-04-24 05:52:00,28.0,10.0,-100.00,SSE,162,4.0,9.0,47,0.00,,,0.00,0.000000,,2013-04-24 12:52:00,
2013-04-24 06:01:00,28.0,10.0,-100.00,SSE,162,4.0,9.0,47,0.00,,,0.00,0.000000,,2013-04-24 13:01:00,
2013-04-24 06:12:00,28.0,10.0,-100.00,SSE,162,4.0,9.0,47,0.00,,,0.00,0.000000,,2013-04-24 13:12:00,
2013-04-24 06:21:00,28.0,10.0,-100.00,SSE,162,4.0,9.0,47,0.00,,,0.00,0.000000,,2013-04-24 13:21:00,
2013-04-24 07:52:00,25.0,2.0,-100.00,South,191,4.0,8.0,36,-99.99,,,0.00,3.000000,,2013-04-24 14:52:00,
2013-04-24 08:01:00,25.0,2.0,-100.00,South,191,4.0,8.0,36,-99.99,,,0.00,3.000000,,2013-04-24 15:01:00,
2013-04-24 08:11:00,25.0,2.0,-100.00,South,191,4.0,8.0,36,-99.99,,,0.00,3.000000,,2013-04-24 15:11:00,
2013-04-24 10:52:00,47.0,2.0,-100.00,NNE,18,11.0,12.0,15,0.00,,,0.00,666.000000,,2013-04-24 17:52:00,
2013-04-24 11:02:00,47.0,2.0,-100.00,NNE,18,11.0,12.0,15,0.00,,,0.00,666.000000,,2013-04-24 18:02:00,
2013-04-24 11:12:00,47.0,2.0,-100.00,NNE,18,11.0,12.0,15,0.00,,,0.00,666.000000,,2013-04-24 18:12:00,
2013-04-24 11:21:00,47.0,2.0,-100.00,NNE,18,11.0,12.0,15,0.00,,,0.00,666.000000,,2013-04-24 18:21:00,
2013-04-24 11:52:00,51.0,4.0,-100.00,North,5,10.0,17.0,14,0.00,,,0.00,892.000000,,2013-04-24 18:52:00,
2013-04-24 12:01:00,51.0,4.0,-100.00,North,5,10.0,17.0,14,0.00,,,0.00,892.000000,,2013-04-24 19:01:00,
2013-04-24 12:11:00,51.0,4.0,-100.00,North,5,10.0,17.0,14,0.00,,,0.00,892.000000,,2013-04-24 19:11:00,
2013-04-24 12:21:00,51.0,4.0,-100.00,North,5,10.0,17.0,14,0.00,,,0.00,892.000000,,2013-04-24 19:21:00,
2013-04-24 12:52:00,54.0,6.0,-100.00,North,358,10.0,19.0,14,0.00,,,0.00,1073.000000,,2013-04-24 19:52:00,
2013-04-24 13:01:00,54.0,6.0,-100.00,North,358,10.0,19.0,14,0.00,,,0.00,1073.000000,,2013-04-24 20:01:00,
2013-04-24 13:11:00,54.0,6.0,-100.00,North,358,10.0,19.0,14,0.00,,,0.00,1073.000000,,2013-04-24 20:11:00,
2013-04-24 13:21:00,54.0,6.0,-100.00,North,358,10.0,19.0,14,0.00,,,0.00,1073.000000,,2013-04-24 20:21:00,
2013-04-24 13:52:00,54.0,4.0,-100.00,NNE,18,9.0,18.0,13,0.00,,,0.00,1193.000000,,2013-04-24 20:52:00,
2013-04-24 14:02:00,54.0,4.0,-100.00,NNE,18,9.0,18.0,13,0.00,,,0.00,1193.000000,,2013-04-24 21:02:00,
2013-04-24 14:11:00,54.0,4.0,-100.00,NNE,18,9.0,18.0,13,0.00,,,0.00,1193.000000,,2013-04-24 21:11:00,
2013-04-24 14:21:00,54.0,4.0,-100.00,NNE,18,9.0,18.0,13,0.00,,,0.00,1193.000000,,2013-04-24 21:21:00,
2013-04-24 14:52:00,55.0,3.0,-100.00,NNW,347,9.0,18.0,12,0.00,,,0.00,1238.000000,,2013-04-24 21:52:00,
2013-04-24 15:03:00,55.0,3.0,-100.00,NNW,347,9.0,18.0,12,0.00,,,0.00,1238.000000,,2013-04-24 22:03:00,
2013-04-24 15:12:00,55.0,3.0,-100.00,NNW,347,9.0,18.0,12,0.00,,,0.00,1238.000000,,2013-04-24 22:12:00,
2013-04-24 15:22:00,55.0,3.0,-100.00,NNW,347,9.0,18.0,12,0.00,,,0.00,1238.000000,,2013-04-24 22:22:00,
2013-04-24 15:52:00,58.0,6.0,-100.00,NNW,348,9.0,18.0,12,0.00,,,0.00,1209.000000,,2013-04-24 22:52:00,
2013-04-24 16:02:00,58.0,6.0,-100.00,NNW,348,9.0,18.0,12,0.00,,,0.00,1209.000000,,2013-04-24 23:02:00,
2013-04-24 16:12:00,58.0,6.0,-100.00,NNW,348,9.0,18.0,12,0.00,,,0.00,1209.000000,,2013-04-24 23:12:00,
2013-04-24 16:21:00,58.0,6.0,-100.00,NNW,348,9.0,18.0,12,0.00,,,0.00,1209.000000,,2013-04-24 23:21:00,
2013-04-24 16:52:00,57.0,5.0,-100.00,NNE,22,9.0,19.0,12,0.00,,,0.00,1111.000000,,2013-04-24 23:52:00,
2013-04-24 17:01:00,57.0,5.0,-100.00,NNE,22,9.0,19.0,12,0.00,,,0.00,1111.000000,,2013-04-25 00:01:00,
2013-04-24 17:12:00,57.0,5.0,-100.00,NNE,22,9.0,19.0,12,0.00,,,0.00,1111.000000,,2013-04-25 00:12:00,
2013-04-24 17:22:00,57.0,5.0,-100.00,NNE,22,9.0,19.0,12,0.00,,,0.00,1111.000000,,2013-04-25 00:22:00,
2013-04-24 17:52:00,59.0,6.0,-100.00,NNE,17,12.0,21.0,12,0.00,,,0.00,947.000000,,2013-04-25 00:52:00,
2013-04-24 18:01:00,59.0,6.0,-100.00,NNE,17,12.0,21.0,12,0.00,,,0.00,947.000000,,2013-04-25 01:01:00,
2013-04-24 18:11:00,59.0,6.0,-100.00,NNE,17,12.0,21.0,12,0.00,,,0.00,947.000000,,2013-04-25 01:11:00,
2013-04-24 18:22:00,59.0,6.0,-100.00,NNE,17,12.0,21.0,12,0.00,,,0.00,947.000000,,2013-04-25 01:22:00,
2013-04-24 18:52:00,57.0,7.0,-100.00,North,4,14.0,18.0,13,0.00,,,0.00,727.000000,,2013-04-25 01:52:00,
2013-04-24 19:01:00,57.0,7.0,-100.00,North,4,14.0,18.0,13,0.00,,,0.00,727.000000,,2013-04-25 02:01:00,
2013-04-24 19:11:00,57.0,7.0,-100.00,North,4,14.0,18.0,13,0.00,,,0.00,727.000000,,2013-04-25 02:11:00,
2013-04-24 19:22:00,57.0,7.0,-100.00,North,4,14.0,18.0,13,0.00,,,0.00,727.000000,,2013-04-25 02:22:00,
2013-04-24 20:02:00,53.0,9.0,-100.00,NNE,12,10.0,21.0,17,0.00,,,0.00,473.000000,,2013-04-25 03:02:00,
2013-04-24 20:11:00,53.0,9.0,-100.00,NNE,12,10.0,21.0,17,0.00,,,0.00,473.000000,,2013-04-25 03:11:00,
2013-04-24 20:21:00,53.0,9.0,-100.00,NNE,12,10.0,21.0,17,0.00,,,0.00,473.000000,,2013-04-25 03:21:00,
2013-04-24 20:52:00,49.0,12.0,-100.00,NE,43,4.0,20.0,22,0.00,,,-99.99,124.000000,,2013-04-25 03:52:00,
2013-04-24 21:03:00,49.0,12.0,-100.00,NE,43,4.0,20.0,22,0.00,,,-99.99,124.000000,,2013-04-25 04:03:00,
2013-04-24 21:12:00,49.0,12.0,-100.00,NE,43,4.0,20.0,22,0.00,,,-99.99,124.000000,,2013-04-25 04:12:00,
2013-04-24 21:22:00,49.0,12.0,-100.00,NE,43,4.0,20.0,22,0.00,,,-99.99,124.000000,,2013-04-25 04:22:00,
2013-04-24 21:52:00,43.0,10.0,-100.00,West,280,3.0,16.0,25,0.00,,,0.00,10.000000,,2013-04-25 04:52:00,
2013-04-24 22:02:00,43.0,10.0,-100.00,West,280,3.0,16.0,25,0.00,,,0.00,10.000000,,2013-04-25 05:02:00,
2013-04-24 22:12:00,43.0,10.0,-100.00,West,280,3.0,16.0,25,0.00,,,0.00,10.000000,,2013-04-25 05:12:00,
2013-04-24 22:21:00,43.0,10.0,-100.00,West,280,3.0,16.0,25,0.00,,,0.00,10.000000,,2013-04-25 05:21:00,
2013-04-24 22:52:00,41.0,12.0,-100.00,ESE,105,4.0,7.0,30,0.00,,,0.00,0.000000,,2013-04-25 05:52:00,
2013-04-24 23:01:00,41.0,12.0,-100.00,ESE,105,4.0,7.0,30,0.00,,,0.00,0.000000,,2013-04-25 06:01:00,
2013-04-24 23:11:00,41.0,12.0,-100.00,ESE,105,4.0,7.0,30,0.00,,,0.00,0.000000,,2013-04-25 06:11:00,
2013-04-24 23:22:00,41.0,12.0,-100.00,ESE,105,4.0,7.0,30,0.00,,,0.00,0.000000,,2013-04-25 06:22:00,
2013-04-24 23:52:00,35.0,9.0,-100.00,SE,142,2.0,9.0,33,0.00,,,0.00,0.000000,,2013-04-25 06:52:00,